Location: MAS Eagle Lake Observatory
(44.8103°N, 93.9397°W)
Time: 18:15:06
(UTC-05:00)

OTV 5 (USA 277) - Visible Passes

Search period start: 21 October 2017 00:00
Search period end: 31 October 2017 00:00
Orbit: 404 x 417 km, 43.0° (Epoch: 07 September)

Date Brightness Start Highest point End Pass type
(mag) Time Alt. Az. Time Alt. Az. Time Alt. Az.
21 Oct ? 19:03:15 10° W 19:06:23 36° SSW 19:09:32 10° SE visible
21 Oct ? 20:42:16 10° SW 20:42:57 11° SW 20:42:57 11° SW visible
22 Oct ? 19:50:09 10° WSW 19:52:13 15° SSW 19:54:18 10° S visible
23 Oct ? 18:58:42 10° WSW 19:01:19 21° SSW 19:03:56 10° SSE visible
25 Oct ? 18:55:21 10° SW 18:56:07 11° SW 18:56:53 10° SSW visible
